[[{"header":{"parameterUnit":"m.s-1","parameterCategory":1,"la1":30.2991,"la2":30.254,"lo1":-89.0895,"lo2":-89.0444,"dy":0.0017,"dx":0.0017,"nx":28,"ny":28,"refTime":"2023-08-31T21:00:00:Z","depth":0,"parameterNumber":2,"parameterNumberName":"U-component_of_WINDS"},"data":[0,0,0,0,0,0,0,0,0,0,0,0,0,0,0,0,0,0,0,0,0,0,0,0,0,0,0,0,0,0,0,0,0,0,0,0,0,0,0,0,0,0,0,0,0,0,0,0,0,0,0,0,0,0,0,0,0,0,0.2099,0.2099,0,0.2125,0.2126,0.2126,0.2143,0.2143,0.2143,0.2143,0.2168,0.2168,0.2169,0,0,0,0,0,0,0,0,0,0,0,0,0,0.2062,0.2062,0.2099,0.2099,0.21,0.2125,0.2126,0.2126,0.2143,0.2143,0.2143,0.2143,0.2168,0.2168,0.2169,0,0,0,0,0,0,0,0,0,0,0,0,0,0.2082,0.2062,0.2099,0.2111,0.2113,0.2125,0.2126,0.2126,0.2143,0.2143,0.2143,0.2143,0.2168,0.2168,0.2169,0.2171,0,0,0.2172,0.2172,0,0,0,0,0,0,0,0,0.2081,0.2083,0.2109,0.211,0.2112,0.2131,0.2122,0.2141,0.2143,0.2131,0.2143,0.2143,0.2155,0.2157,0.2162,0.2172,0.2173,0.2172,0.2172,0.2173,0.2173,0,0,0,0,0,0,0,0.2079,0.2082,0.2109,0.2109,0.2111,0.2115,0.2118,0.2125,0.2142,0.2132,0.2133,0.2136,0.2156,0.2161,0.2162,0.2174,0.2172,0.2173,0.2173,0.2173,0.2187,0.2187,0,0,0,0,0,0,0.2076,0.2081,0.2109,0.211,0.2096,0.2115,0.2119,0.2125,0.2142,0.2145,0.2136,0.2137,0.2159,0.2161,0.2163,0.2167,0.2173,0.2174,0.2174,0.2187,0.2187,0.2187,0,0,0,0,0,0,0.2075,0.2079,0.2108,0.2096,0.21,0.2116,0.2122,0.2125,0.213,0.2145,0.2148,0.2138,0.216,0.2162,0.2169,0.2168,0.2174,0.2175,0.2188,0.2187,0.2187,0.2173,0,0,0,0,0,0,0.2074,0.2078,0.2079,0.2096,0.21,0.2113,0.2122,0.2125,0.2131,0.2133,0.2148,0.215,0.216,0.2168,0.217,0.2169,0.2175,0.2188,0.2187,0.2187,0.2174,0.2173,0.2172,0,0,0,0,0,0.2073,0.2074,0.2079,0.2083,0.2103,0.2113,0.2116,0.2128,0.2131,0.2132,0.2142,0.215,0.2168,0.2168,0.2171,0.217,0.2188,0.2188,0.2187,0.2175,0.2173,0.2172,0,0,0,0,0,0,0.2056,0.2077,0.2083,0.209,0.21,0.2116,0.2118,0.2126,0.2134,0.2135,0.2149,0.2152,0.2157,0.2165,0.2165,0.2173,0.2179,0.2179,0.2168,0.2167,0.2166,0.2164,0.2176,0,0,0,0,0,0.2054,0.2062,0.2078,0.2083,0.2088,0.2102,0.2107,0.2115,0.2126,0.213,0.2141,0.215,0.2158,0.2163,0.2171,0.2175,0.2179,0.2176,0.2175,0.2174,0.2174,0.2176,0.2175,0.2186,0.2186,0.2186,0,0,0.2048,0.206,0.2064,0.208,0.2089,0.2096,0.2105,0.2112,0.2118,0.2131,0.2139,0.2146,0.2158,0.2164,0.2167,0.217,0.2172,0.2174,0.2173,0.2173,0.2176,0.2175,0.2174,0.2186,0.2186,0.2186,0,0,0.2041,0.2051,0.2056,0.2065,0.2078,0.2088,0.2089,0.2105,0.211,0.2118,0.2128,0.2135,0.2148,0.2156,0.2161,0.2158,0.2165,0.216,0.2154,0.2156,0.2155,0.2154,0.2153,0.2152,0.216,0.216,0.216,0,0.2032,0.2044,0.2057,0.2064,0.207,0.2084,0.2088,0.2096,0.2111,0.2115,0.2118,0.2135,0.2144,0.2152,0.2151,0.2155,0.2157,0.2158,0.2154,0.2154,0.2153,0.2152,0.2151,0.2159,0.2159,0.2159,0.2159,0,0.2032,0.204,0.2042,0.2057,0.2064,0.2069,0.2083,0.2088,0.2096,0.2104,0.2112,0.2123,0.2134,0.2136,0.2143,0.2145,0.2146,0.2152,0.2158,0.2151,0.215,0.215,0.2158,0.2158,0.2159,0.2159,0,0,0.2015,0.2038,0.2038,0.2045,0.2061,0.2067,0.2073,0.2084,0.2088,0.2098,0.2103,0.2114,0.2119,0.2126,0.2134,0.2136,0.2132,0.2142,0.2142,0.2139,0.2134,0.2129,0.2128,0.2137,0.2137,0.2137,0.2133,0,0.201,0.2022,0.2034,0.2042,0.2049,0.2062,0.2067,0.2077,0.2085,0.2092,0.2102,0.2109,0.2116,0.212,0.2123,0.2132,0.2131,0.2133,0.2141,0.2141,0.2137,0.2128,0.2123,0.2118,0.2132,0.2132,0.2132,0,0.2006,0.2016,0.2024,0.204,0.2043,0.2048,0.2059,0.2065,0.2077,0.2083,0.209,0.2099,0.2105,0.2111,0.2119,0.212,0.2124,0.213,0.213,0.213,0.2136,0.2128,0.2117,0.2116,0.2132,0.2132,0.2132,0,0.1992,0.2008,0.2015,0.2021,0.2039,0.2041,0.2049,0.2061,0.2067,0.2076,0.208,0.209,0.2095,0.2102,0.2113,0.2116,0.212,0.2127,0.2125,0.2125,0.2125,0.2124,0.2114,0.2128,0.2128,0.2128,0.2128,0,0.1985,0.199,0.2009,0.2013,0.2018,0.2032,0.2037,0.2045,0.2056,0.2061,0.2073,0.2078,0.2093,0.2099,0.2108,0.2114,0.2116,0.2121,0.2123,0.2119,0.2119,0.2122,0.2122,0.2128,0.2128,0.2128,0.2128,0,0.1971,0.1984,0.1992,0.2009,0.2013,0.2016,0.203,0.2035,0.2044,0.2051,0.2053,0.2068,0.2076,0.2088,0.21,0.2106,0.211,0.2114,0.2106,0.2108,0.2105,0.2105,0.2096,0.2095,0.211,0.211,0.211,0,0.1965,0.1969,0.1986,0.1991,0.1999,0.2006,0.2012,0.2026,0.2032,0.2046,0.2048,0.2057,0.2066,0.2078,0.2089,0.2098,0.2102,0.2098,0.2104,0.21,0.2102,0.2101,0.2101,0.2097,0.2097,0.2097,0.2096,0,0.1953,0.196,0.1969,0.198,0.1987,0.1996,0.2006,0.2009,0.2025,0.203,0.2039,0.2046,0.2058,0.2067,0.2078,0.2085,0.2093,0.2095,0.2095,0.2091,0.2086,0.2088,0.2102,0.2095,0.2095,0.2095,0.2095,0.2095,0.1943,0.1947,0.196,0.1969,0.1978,0.1987,0.1991,0.2002,0.201,0.2021,0.2029,0.2037,0.2049,0.2064,0.2071,0.2077,0.2081,0.2081,0.208,0.208,0.2079,0.2086,0.2079,0.2079,0.2079,0.2079,0.2079,0,0.1931,0.194,0.1949,0.1962,0.197,0.1978,0.1989,0.1994,0.2001,0.2012,0.202,0.203,0.2039,0.2051,0.206,0.2063,0.2067,0.2065,0.2065,0.2066,0.2075,0.2074,0.2062,0.2062,0.2062,0.2062,0.2062,0.2062,0.1926,0.1933,0.1941,0.1952,0.1961,0.197,0.1976,0.1984,0.1992,0.2003,0.2011,0.2019,0.203,0.204,0.2049,0.2052,0.2055,0.2051,0.2056,0.2064,0.2065,0.2067,0.2066,0.2052,0.2052,0.2046,0.2046,0.2046]},{"header":{"parameterUnit":"m.s-1","parameterCategory":1,"la1":30.2991,"la2":30.254,"lo1":-89.0895,"lo2":-89.0444,"dy":0.0017,"dx":0.0017,"nx":28,"ny":28,"refTime":"2023-08-31T21:00:00:Z","depth":0,"parameterNumber":3,"parameterNumberName":"V-component_of_WINDS"},"data":[0,0,0,0,0,0,0,0,0,0,0,0,0,0,0,0,0,0,0,0,0,0,0,0,0,0,0,0,0,0,0,0,0,0,0,0,0,0,0,0,0,0,0,0,0,0,0,0,0,0,0,0,0,0,0,0,0,0,-0.944,-0.944,0,-0.9466,-0.9466,-0.9467,-0.9505,-0.9506,-0.9506,-0.9507,-0.9531,-0.9531,-0.9531,0,0,0,0,0,0,0,0,0,0,0,0,0,-0.9422,-0.9422,-0.944,-0.9441,-0.9441,-0.9466,-0.9466,-0.9467,-0.9505,-0.9506,-0.9507,-0.9507,-0.9531,-0.9531,-0.9531,0,0,0,0,0,0,0,0,0,0,0,0,0,-0.9437,-0.9422,-0.944,-0.9463,-0.9465,-0.9466,-0.9466,-0.9467,-0.9505,-0.9506,-0.9507,-0.9508,-0.9531,-0.9531,-0.9531,-0.9511,0,0,-0.9531,-0.9531,0,0,0,0,0,0,0,0,-0.9436,-0.9437,-0.9459,-0.9461,-0.9464,-0.9483,-0.9469,-0.9481,-0.9504,-0.949,-0.9507,-0.9508,-0.9514,-0.9516,-0.9518,-0.9512,-0.9513,-0.9531,-0.9531,-0.9531,-0.9531,0,0,0,0,0,0,0,-0.9435,-0.9437,-0.945,-0.946,-0.9462,-0.9471,-0.9474,-0.9471,-0.9496,-0.9491,-0.9494,-0.9497,-0.9516,-0.9518,-0.9519,-0.9513,-0.9531,-0.9531,-0.9531,-0.9531,-0.949,-0.9489,0,0,0,0,0,0,-0.9431,-0.9435,-0.945,-0.9451,-0.9452,-0.9471,-0.9474,-0.9476,-0.9496,-0.95,-0.9496,-0.9498,-0.9518,-0.9519,-0.952,-0.9497,-0.9531,-0.9531,-0.9531,-0.9491,-0.949,-0.9489,0,0,0,0,0,0,-0.943,-0.9432,-0.9448,-0.9444,-0.9447,-0.947,-0.9472,-0.9476,-0.9479,-0.9499,-0.9504,-0.9494,-0.9518,-0.952,-0.9513,-0.9498,-0.9531,-0.9531,-0.9493,-0.9491,-0.949,-0.945,0,0,0,0,0,0,-0.9429,-0.9431,-0.9424,-0.9444,-0.9447,-0.9441,-0.9471,-0.9476,-0.9479,-0.9482,-0.9499,-0.9502,-0.9519,-0.9512,-0.9513,-0.9499,-0.9531,-0.9494,-0.9492,-0.949,-0.9453,-0.9448,-0.9443,0,0,0,0,0,-0.9429,-0.9412,-0.9424,-0.9425,-0.9439,-0.944,-0.9442,-0.9463,-0.9477,-0.947,-0.9484,-0.9502,-0.95,-0.9511,-0.9512,-0.9498,-0.9495,-0.9493,-0.949,-0.9455,-0.9449,-0.9443,0,0,0,0,0,0,-0.9389,-0.9415,-0.9428,-0.9417,-0.9426,-0.9447,-0.9438,-0.9455,-0.946,-0.9463,-0.9487,-0.949,-0.948,-0.9488,-0.9501,-0.9479,-0.95,-0.9498,-0.9473,-0.9467,-0.9462,-0.946,-0.9531,0,0,0,0,0,-0.9379,-0.9379,-0.9401,-0.9389,-0.9393,-0.9415,-0.9416,-0.9431,-0.9442,-0.9445,-0.9458,-0.9467,-0.9468,-0.9468,-0.9471,-0.9455,-0.9458,-0.9445,-0.944,-0.9436,-0.9433,-0.9425,-0.9419,-0.9481,-0.9481,-0.9481,0,0,-0.9359,-0.9373,-0.9371,-0.9382,-0.9391,-0.9389,-0.9418,-0.9415,-0.9414,-0.9445,-0.9439,-0.9448,-0.9459,-0.9448,-0.9443,-0.9454,-0.9417,-0.9433,-0.9429,-0.9429,-0.9422,-0.9416,-0.941,-0.9479,-0.948,-0.948,0,0,-0.932,-0.9331,-0.9322,-0.9331,-0.9344,-0.9358,-0.9356,-0.9374,-0.9382,-0.9377,-0.9399,-0.9398,-0.94,-0.9407,-0.941,-0.9374,-0.9391,-0.9374,-0.9348,-0.9339,-0.9334,-0.933,-0.9316,-0.9311,-0.9372,-0.9372,-0.9372,0,-0.9292,-0.9292,-0.9315,-0.9311,-0.9315,-0.9343,-0.9334,-0.9341,-0.9354,-0.9355,-0.9368,-0.9371,-0.938,-0.937,-0.9361,-0.9364,-0.9361,-0.9372,-0.9333,-0.9329,-0.9326,-0.9313,-0.9308,-0.937,-0.937,-0.937,-0.937,0,-0.9257,-0.9256,-0.9247,-0.926,-0.9262,-0.9256,-0.9277,-0.9277,-0.9292,-0.9305,-0.9298,-0.9311,-0.9316,-0.9315,-0.9329,-0.9306,-0.9313,-0.9329,-0.9351,-0.9317,-0.9305,-0.9301,-0.9366,-0.9367,-0.9368,-0.9368,0,0,-0.9193,-0.9219,-0.9216,-0.9221,-0.9238,-0.9238,-0.9232,-0.9238,-0.9237,-0.9245,-0.924,-0.9241,-0.9256,-0.926,-0.9275,-0.9268,-0.9237,-0.9285,-0.9286,-0.9275,-0.9212,-0.9199,-0.9193,-0.9249,-0.9248,-0.9248,-0.9211,0,-0.9157,-0.915,-0.9171,-0.9157,-0.9156,-0.9184,-0.9178,-0.9188,-0.9199,-0.92,-0.9213,-0.9213,-0.9233,-0.9236,-0.923,-0.9242,-0.9225,-0.9246,-0.9244,-0.9243,-0.9239,-0.9187,-0.9174,-0.9139,-0.9207,-0.9206,-0.9206,0,-0.9115,-0.9121,-0.9108,-0.9125,-0.9126,-0.9121,-0.9127,-0.9128,-0.9139,-0.9148,-0.9152,-0.917,-0.9165,-0.9187,-0.9179,-0.9192,-0.9193,-0.9199,-0.9198,-0.9198,-0.9222,-0.9185,-0.9128,-0.9122,-0.9199,-0.9199,-0.92,0,-0.9069,-0.9074,-0.9067,-0.9071,-0.9091,-0.9087,-0.9095,-0.9107,-0.9109,-0.9115,-0.9116,-0.9121,-0.9123,-0.9126,-0.9145,-0.9159,-0.9134,-0.9158,-0.9141,-0.914,-0.9134,-0.9134,-0.9075,-0.9135,-0.9135,-0.9136,-0.9136,0,-0.9026,-0.9016,-0.9046,-0.9042,-0.9032,-0.9056,-0.9045,-0.9055,-0.9066,-0.9063,-0.9087,-0.9084,-0.9109,-0.9108,-0.9122,-0.9113,-0.9114,-0.912,-0.9124,-0.9118,-0.9117,-0.9118,-0.912,-0.9134,-0.9135,-0.9135,-0.9135,0,-0.8973,-0.8993,-0.8986,-0.9006,-0.9011,-0.9003,-0.9019,-0.9015,-0.9029,-0.9025,-0.9025,-0.9046,-0.9047,-0.9066,-0.907,-0.9079,-0.9064,-0.9072,-0.906,-0.9062,-0.9044,-0.9045,-0.8983,-0.8976,-0.9042,-0.9041,-0.904,0,-0.8944,-0.8937,-0.8957,-0.8957,-0.8964,-0.8964,-0.8967,-0.899,-0.8991,-0.9003,-0.8997,-0.8999,-0.9002,-0.9001,-0.9016,-0.9019,-0.9028,-0.9006,-0.9028,-0.9022,-0.9026,-0.9026,-0.9025,-0.9001,-0.9,-0.8999,-0.8999,0,-0.889,-0.89,-0.8903,-0.8909,-0.8911,-0.8917,-0.8924,-0.8923,-0.8948,-0.8948,-0.8949,-0.8952,-0.8956,-0.8957,-0.8963,-0.8971,-0.8988,-0.8992,-0.8988,-0.8981,-0.8973,-0.8976,-0.9046,-0.8993,-0.8993,-0.8994,-0.8994,-0.8994,-0.8847,-0.8843,-0.8856,-0.8858,-0.8866,-0.8872,-0.8869,-0.8883,-0.8884,-0.889,-0.8903,-0.8902,-0.8912,-0.8922,-0.8928,-0.8927,-0.8937,-0.8932,-0.893,-0.8928,-0.8924,-0.8974,-0.8928,-0.8928,-0.8928,-0.8928,-0.8928,0,-0.8794,-0.8804,-0.8806,-0.8815,-0.8817,-0.8835,-0.8843,-0.8843,-0.8842,-0.8851,-0.8853,-0.8854,-0.8856,-0.8871,-0.8874,-0.887,-0.8878,-0.887,-0.887,-0.8871,-0.8915,-0.8918,-0.8863,-0.8863,-0.8863,-0.8863,-0.8863,-0.8863,-0.8767,-0.8759,-0.8771,-0.8767,-0.8777,-0.8777,-0.878,-0.8785,-0.8792,-0.8792,-0.8794,-0.8804,-0.8815,-0.882,-0.8822,-0.8826,-0.8826,-0.8815,-0.8821,-0.8862,-0.8868,-0.8874,-0.8877,-0.8815,-0.8815,-0.8778,-0.8777,-0.8777]}]]